Regional Weather Roundup
Issued by NWS

Home | Current Version | Previous Version | Text Only | Print | Product List | Glossary Off
Versions: 1 2 3 4 5 6 7 8 9 10 11 12 13 14 15 16 17 18 19 20 21 22 23 24 25 26 27 28 29 30 31 32 33 34 35 36 37 38 39 40 41 42 43 44 45 46 47 48 49 50

000
ASUS43 KLOT 270208
RWRIL

ILLINOIS REGIONAL WEATHER ROUNDUP
NATIONAL WEATHER SERVICE CHICAGO/ROMEOVILLE IL
900 PM CDT THU MAR 26 2015

NOTE: "FAIR" INDICATES FEW OR NO CLOUDS BELOW 12,000 FEET WITH NO
SIGNIFICANT WEATHER AND/OR OBSTRUCTIONS TO VISIBILITY.

* THESE STATIONS ARE NOT UNDER NWS QUALITY CONTROL. THEY ALSO MAY NOT
  REPORT WEATHER SUCH AS PRECIPITATION OR FOG.

ILZ001-002-007-009-015-016-024-270300-
NORTHWEST ILLINOIS

CITY           SKY/WX    TMP DP  RH WIND       PRES   REMARKS
MOLINE         CLEAR     34  21  59 N13       30.09R WCI  25
STERLING*      CLEAR     34  21  60 NW9       30.08R WCI  26
SAVANNA*       CLOUDY    35  19  53 N9        30.08R WCI  27
$$

ILZ003-004-008-010-011-017-018-270300-
NORTH CENTRAL ILLINOIS

CITY           SKY/WX    TMP DP  RH WIND       PRES   REMARKS
ROCKFORD       CLOUDY    34  22  61 NW8       30.07R WCI  27
FREEPORT*      CLOUDY    32  20  61 NW9       30.08R WCI  25
ROCHELLE*      CLOUDY    33  24  71 NW9       30.06R WCI  25
DE KALB*       CLOUDY    32  19  58 NW5       30.05R WCI  27
PERU*          CLOUDY    35  26  70 N7        30.07R WCI  29
$$

ILZ005-006-012>014-019>023-270300-
NORTHEAST ILLINOIS

CITY           SKY/WX    TMP DP  RH WIND       PRES   REMARKS
CHICAGO-OHARE  CLOUDY    35  21  56 NW9       30.03R WCI  28
CHICAGO-MIDWAY MOCLDY    38  19  46 NW12      30.04R WCI  30
AURORA         CLOUDY    34  21  59 N10       30.05R WCI  26
LANSING*       LGT RAIN  35  25  65 NE5       30.04R WCI  31
JOLIET*        CLOUDY    38  25  59 N8        30.06R WCI  32
WAUKEGAN       CLOUDY    32  19  58 N9        30.03R WCI  24
DUPAGE AIRPORT CLOUDY    35  21  56 NW8       30.04R WCI  29
KANKAKEE*      MOCLDY    36  25  65 CALM      30.05R
WHEELING       CLOUDY    35  21  56 N13G21    30.05R WCI  26
MORRIS*        CLOUDY    33  26  76 N5        30.05R WCI  29
ROMEOVILLE*    CLOUDY    36  22  58 N12       30.05R WCI  27
NORTHERLY ISL    N/A     36  25  65 MISG        N/A
$$

LMZ740>746-270300-
SOUTHERN LAKE MICHIGAN

STATION/POSITION SKY/WX   TEMP    WIND        PRES    VSBY  WAVE
                          AIR SEA DIR/SP/G                  HT/PER
                          (F)     (DEG/KT/KT) (MB)    (MI)  (FT/S)
HARRISON CRIB              35     360/ 15/ 17   N/A
BURNHAM HARBOR             36     340/  9/ 13   N/A
CALUMET HARBOR             36     340/ 13/ 16 1015.2R
BURNS HARBOR               35      30/ 10/ 13 1016.9R
MICHIGAN CITY              33     340/ 16/ 18   N/A
$$

ILZ025>027-034>036-040-047-049-050-058-095>099-270300-
WEST-CENTRAL ILLINOIS

CITY           SKY/WX    TMP DP  RH WIND       PRES   REMARKS
QUINCY         MOCLDY    41  27  57 N7        30.07R
GALESBURG*     CLEAR     33  25  72 N13       30.09R WCI  23
MACOMB*        PTCLDY    36  28  72 N10       30.10R WCI  28
JACKSONVILLE*  PTCLDY    40  30  67 NW5       30.06R
PITTSFIELD*    PTCLDY    41  29  60 NW5       30.07S
$$

ILZ028>032-037-038-041>044-048-051>054-059>061-270300-
CENTRAL ILLINOIS

CITY           SKY/WX    TMP DP  RH WIND       PRES   REMARKS
PONTIAC        MOCLDY    37  28  72 N7        30.06R WCI  31
BLOOMINGTON    CLEAR     38  26  62 N6        30.04R WCI  33
DECATUR        CLEAR     38  25  59 N7        30.04R WCI  33
PEORIA         CLEAR     39  23  52 VRB6      30.07R WCI  35
LACON*         PTCLDY    36  26  65 N8        30.06R WCI  30
LINCOLN*       CLEAR     38  28  66 NW3       30.06R
SPRINGFIELD    CLEAR     38  27  64 W5        30.06R WCI  34
TAYLORVILLE    FAIR      39  28  65 NW3       30.05R
$$

ILZ033-039-045-046-055>057-062-063-270300-
EAST-CENTRAL ILLINOIS

CITY           SKY/WX    TMP DP  RH WIND       PRES   REMARKS
CHAMPAIGN      FAIR      34  25  69 NW5       30.03R WCI  30
DANVILLE*      CLEAR     33  28  81 N8        30.00S WCI  26
RANTOUL*       CLEAR     38  29  70 N5        30.03S WCI  34
MATTOON        PTCLDY    36  30  79 NW7       30.03R WCI  30
PARIS*         CLEAR     38  31  75 N5        30.03S WCI  34
$$

ILZ079-100>102-270300-
SOUTHWEST ILLINOIS

CITY           SKY/WX    TMP DP  RH WIND       PRES   REMARKS
BELLEVILLE     CLEAR     39  30  69 W2        30.06R
CAHOKIA*       FAIR      42  28  57 NW5       30.07R
SPARTA*        CLEAR     42  31  64 CALM      30.08R
$$

ILZ064>066-069>071-074>076-080>082-084>086-088>090-092>094-270300-
SOUTH-CENTRAL ILLINOIS

CITY           SKY/WX    TMP DP  RH WIND       PRES   REMARKS
CARBONDALE     CLEAR     41  31  67 NW6       30.06R
CAIRO*         CLEAR     41  36  82 CALM      30.06S
EFFINGHAM*     CLEAR     40  29  63 NW5       30.05S
MARION         CLEAR     43  32  65 CALM      30.06S
MT. VERNON     CLEAR     37  27  65 CALM      30.06R
CENTRALIA*     CLEAR     41  30  64 NW3       30.06R
SALEM*         CLEAR     43  32  64 NW3       30.06R
METROPOLIS*    CLEAR     41  34  76 CALM      30.05S
$$

ILZ067-068-072-073-078-083-087-091-270300-
SOUTHEAST ILLINOIS

CITY           SKY/WX    TMP DP  RH WIND       PRES   REMARKS
LAWRENCEVILLE  CLEAR     39  32  76 NW3       30.03R
FLORA*         CLEAR     41  32  71 NW5       30.05R
FAIRFIELD*     CLEAR     42  31  65 CALM      30.04R
HARRISBURG*    CLEAR     40  33  78 NW6       30.06S
ROBINSON*      CLEAR     38  32  78 NW5       30.03R WCI  35
CARMI*         PTCLDY    40  37  87 W7        30.04R
$$

ABBREVIATIONS USED IN REMARKS
   TC - TEMPERATURE IN CELSIUS
  WCI - WIND CHILL INDEX
   HX - HEAT INDEX
  VSB - VISIBILITY
$$




USA.gov is the U.S. government's official web portal to all federal, state and local government web resources and services.